www.pogodaiklimat.ru

Погода и климат >> Архив погоды >> Канада >> Нунавут >> Юрика


ПОГОДА в Юрике

  • Прогноз погоды в Юрике
  • Монитор погоды в Юрике

АРХИВ ПОГОДЫ в Юрике

Время (UTC), дата Ветер
(напр.,м/с)
 
Видим.   Явления Облачность Т
(С)
Тd
(С)
f
(%)
Тe
(С)
Тes
(С)
Комфортность P
(гПа)
Po
(гПа)
Тmin
(С)
Tmax
(С)
R
(мм)
R24
(мм)
S
(см)
09 13.04 В 1 н/о н/о -37.6 -41.3 68 -39 -39 опасность
обморожения
1020.0 1018.6
12 13.04 В 3 н/о н/о -37.5 -41.4 67 -48 -48 опасность
обморожения
1019.0 1017.6 -38.3 -29.7 15
15 13.04 В 2 н/о н/о -36.8 -41.4 62 -46 -46 опасность
обморожения
1016.1 1014.7
18 13.04 ЮВ 3 н/о н/о -34.7 -38.5 68 -44 -44 опасность
обморожения
1013.7 1012.3 -38.3 -30.5
21 13.04 В 2 н/о н/о -33.2 -36.6 71 -41 -41 опасность
обморожения
1012.7 1011.3
00 14.04 В 4 н/о н/о -32.7 -36.0 72 -45 -45 опасность
обморожения
1013.0 1011.6 -38.3 -30.5
03 14.04 В 5 н/о н/о -33.3 -36.5 73 -47 -47 опасность
обморожения
1014.3 1012.9 0.2
06 14.04 В 5 н/о н/о -33.3 -36.7 71 -46 -46 опасность
обморожения
1015.5 1014.1 -38.3 -30.5 0.2
09 14.04 В 5 н/о н/о -34.7 -38.2 70 -48 -48 опасность
обморожения
1016.4 1015.0
12 14.04 В 3 н/о н/о -37.8 -41.7 67 -48 -48 опасность
обморожения
1016.8 1015.4 -38.7 -30.5 15
15 14.04 ЮВ 3 н/о н/о -36.7 -40.6 67 -48 -48 опасность
обморожения
1016.1 1014.7
18 14.04 ЮВ 1 н/о н/о -34.8 -38.6 68 -40 -40 опасность
обморожения
1014.8 1013.4 -38.7 -33.3
21 14.04 штиль 0 н/о н/о -33.3 -37.1 69 -33 -33 опасность
обморожения
1014.6 1013.2
00 15.04 С 1 н/о н/о -34.3 -38.2 68 -39 -39 опасность
обморожения
1014.1 1012.7 -38.7 -32.3
03 15.04 СВ 1 н/о н/о -35.9 -39.7 68 -41 -41 опасность
обморожения
1013.4 1012.0
06 15.04 В 1 н/о н/о -36.7 -40.3 69 -38 -38 опасность
обморожения
1013.0 1011.6 -38.7 -32.3
09 15.04 ЮВ 2 н/о н/о -39.6 -43.5 66 -49 -49 опасность
обморожения
1012.1 1010.7
12 15.04 В 3 н/о н/о -38.7 -42.7 66 -49 -49 опасность
обморожения
1011.6 1010.2 -39.7 -32.3 15
15 15.04 ЮВ 2 н/о н/о -36.7 -40.4 68 -45 -45 опасность
обморожения
1010.3 1008.9
18 15.04 ЮВ 3 н/о н/о -34.3 -38.2 68 -44 -44 опасность
обморожения
1008.8 1007.4 -39.7 -34.3
21 15.04 В 3 н/о н/о -33.6 -37.2 70 -43 -43 опасность
обморожения
1008.4 1007.0
00 16.04 СВ 2 н/о н/о -32.4 -35.8 72 -39 -39 опасность
обморожения
1008.1 1006.7 -39.7 -32.2
03 16.04 В 2 н/о н/о -32.0 -35.2 73 -38 -38 опасность
обморожения
1008.0 1006.6
06 16.04 В 3 н/о н/о -30.8 -33.8 75 -41 -41 опасность
обморожения
1007.1 1005.7 -39.7 -30.8
09 16.04 В 3 н/о н/о -29.8 -32.9 74 -40 -40 опасность
обморожения
1007.7 1006.3
12 16.04 ЮВ 4 н/о н/о -28.9 -32.3 72 -39 -39 опасность
обморожения
1008.5 1007.1 -33.2 -30.8 14
15 16.04 В 5 н/о н/о -28.6 -32.2 71 -40 -40 опасность
обморожения
1009.2 1007.8
18 16.04 ЮВ 5 н/о н/о -28.3 -32.2 69 -40 -40 опасность
обморожения
1010.9 1009.5 -34.5 -28.2
21 16.04 ЮВ 3 н/о н/о -27.9 -31.8 69 -37 -37 опасность
обморожения
1012.8 1011.4
00 17.04 ЮВ 4 н/о н/о -28.0 -31.3 73 -39 -39 опасность
обморожения
1014.3 1012.9 -30.8 -27.6 0.2
03 17.04 В 2 н/о н/о -29.7 -32.8 74 -36 -36 опасность
обморожения
1015.0 1013.6
06 17.04 штиль 0 н/о н/о -29.2 -32.1 76 -29 -29 1015.1 1013.7 -30.8 -27.6 0.2
09 17.04 СВ 3 н/о н/о -31.1 -34.4 73 -40 -40 опасность
обморожения
1015.2 1013.8
12 17.04 СВ 1 н/о н/о -32.2 -35.8 70 -34 -34 опасность
обморожения
1014.9 1013.5 -33.3 -27.6 15
15 17.04 В 1 н/о н/о -31.2 -36.0 62 -33 -33 опасность
обморожения
1014.4 1013.0
18 17.04 В 1 н/о н/о -31.4 -36.2 62 -33 -33 опасность
обморожения
1013.6 1012.2 -34.1 -29.0
21 17.04 ЮВ 1 н/о н/о -30.9 -36.1 60 -35 -35 опасность
обморожения
1013.5 1012.1
00 18.04 В 1 н/о н/о -32.0 -36.7 63 -33 -33 опасность
обморожения
1013.6 1012.2 -34.1 -29.9
03 18.04 В 1 н/о н/о -33.3 -37.2 68 -35 -35 опасность
обморожения
1013.5 1012.1
06 18.04 СВ 1 н/о н/о -36.0 -39.5 70 -41 -41 опасность
обморожения
1014.0 1012.6 -36.1 -29.0
09 18.04 В 1 н/о н/о -35.3 -38.6 72 -40 -40 опасность
обморожения
1014.4 1013.0
12 18.04 штиль 0 н/о н/о -33.9 -37.7 68 -34 -34 опасность
обморожения
1014.3 1012.9 -37.0 -29.0 15
15 18.04 ЮВ 3 н/о н/о -32.7 -36.5 69 -42 -42 опасность
обморожения
1013.9 1012.5
18 18.04 В 2 н/о н/о -30.7 -34.8 67 -38 -38 опасность
обморожения
1013.3 1011.9 -37.0 -30.5
21 18.04 ЮВ 3 н/о н/о -28.7 -32.5 70 -37 -37 опасность
обморожения
1013.5 1012.1
00 19.04 СВ 2 н/о н/о -30.7 -34.5 69 -37 -37 опасность
обморожения
1013.6 1012.2 -37.0 -28.2
03 19.04 СВ 3 н/о н/о -32.7 -36.2 71 -42 -42 опасность
обморожения
1013.0 1011.6 0.2
06 19.04 СВ 1 н/о {осадки} н/о -32.7 -35.9 73 -34 -34 опасность
обморожения
1012.9 1011.5 -37.0 -28.2 0.2
09 19.04 В 3 н/о н/о -34.6 -38.0 71 -45 -45 опасность
обморожения
1012.9 1011.5
12 19.04 В 2 н/о н/о -34.6 -38.7 66 -43 -43 опасность
обморожения
1013.2 1011.8 -35.2 -28.2 16
15 19.04 В 4 н/о н/о -33.5 -37.8 65 -45 -45 опасность
обморожения
1013.5 1012.1
18 19.04 ЮВ 3 н/о н/о -32.0 -36.6 64 -41 -41 опасность
обморожения
1013.5 1012.1 -35.2 -31.9
21 19.04 В 3 н/о н/о -30.9 -35.6 63 -40 -40 опасность
обморожения
1013.9 1012.5
00 20.04 В 2 н/о н/о -31.7 -36.1 65 -38 -38 опасность
обморожения
1014.3 1012.9 -35.2 -30.8

 

Местоположение метеостанции Юрика (Нунавут, Канада): широта 79.99 долгота -85.93 высота над уровнем моря 10 м.

В архиве по умолчанию представлена погода в Юрике за последнюю неделю. Архивные данные за месяц целиком и за предыдущие месяцы, начиная с января 2011 года, Вы можете получить, выбрав интересующий диапазон дат из раскрывающегося списка и нажав кнопку "Ввод!".


*Определитесь, кто Вы:
робот инопланетянин человек

Внимание! Время в таблицах - всемирное. Для получения местного времени необходимо прибавить поправку, которая равна -6 ч.

Смотрите также архив погоды в соседних городах и на ближайших метеорологических станциях:

Погода в Юрике (Нунавут, Канада) (1 км)
Погода в Сарнии (Онтарио, Канада) (343 км)
Погода в Исачсене (Нунавут, Канада) (383 км)
Погода в Mittarfik Qaanaaq (Гренландия) (453 км)
Погода в Kitsissut (Гренландия) (472 км)
Погода в Алерте (Нунавут, Канада) (482 км)
Погода в Аэропорту Ресольют Бэй (Нунавут, Канада) (624 км)
Погода в Ресольют Бэй (Нунавут, Канада) (624 км)
Погода в Арктик Бей (Нунавут, Канада) (778 км)
Погода в Понд-Инлете (Нунавут, Канада) (836 км)

Пояснения к столбцам:

Ветер - указаны скорость ветра в м/с - средняя за 10 мин, порывы в срок и между сроками (в фигурных скобках) и направление, откуда дует ветер: С - северный, СВ - северо-восточный, В - восточный, ЮВ - юго-восточный, Ю - южный, ЮЗ - юго-западный, З - западный, СЗ - северо-западный.
Видимость - горизонтальная дальность видимости в метрах или километрах. При видимости от 1 до 10 км при отсутствии осадков обычно наблюдается дымка, при ухудшении видимости до 1 км и менее - туман. В сухую погоду видимость может ухудшаться дымом, пылью или мглою.
Явления - указаны атмосферные явления, наблюдавшиеся в срок или в последний час перед сроком; фигурными скобками обозначены явления, наблюдавшиеся между сроками (за 1-3 часа до срока); квадратными скобками обозначены град или гололедные отложения с указанием их диаметра в мм.
Облачность - указаны через наклонную черту общая и нижняя облачность в баллах и высота нижней границы облаков в метрах; квадратными скобками обозначены формы облаков: Ci - перистые, Cs - перисто-слоистые, Cc - перисто-кучевые, Ac - высококучевые, As - высокослоистые, Sc - слоисто-кучевые, Ns - слоисто-дождевые, Cu - кучевые, Cb - кучево-дождевые. Подробнее классификацию облаков см. в Атласе облаков (PDF).
T - Температура воздуха - температура, измеренная на высоте 2 м над землей.
Td - Температура точки росы - температура, при понижении до которой содержащийся в воздухе водяной пар достигнет насыщения.
f - Относительная влажность воздуха - влажноcть воздуха, измеренная на высоте 2 м над землей.
Te - Эффективная температура - температура, которую ощущает одетый по сезону человек в тени. Характеристика душности погоды. При расчете учитывается влияние влажности воздуха и скорости ветра на теплоощущения человека.
Tes - Эффективная температура на солнце - температура, которую ощущает человек, с поправкой на солнечный нагрев. Характеристика знойности погоды. Зависит от высоты солнца над горизонтом, облачности и скорости ветра. Ночью, в пасмурную погоду, а также при ветре 12 м/с и более поправка равна нулю.
P - Атмосферное давление - приведенное к уровню моря атмосферное давление.
Po - Атмосферное давление - измеренное на уровне метеостанции атмосферное давление.
Tmin - Минимальная температура - минимум температуры воздуха на высоте 2 м над землей.
Tmax - Максимальная температура - максимум температуры воздуха на высоте 2 м над землей.
R - Количество осадков - Количество выпавших осадков за период времени, мм. При наведении курсора мыши на число - период времени, за который выпало указанное количество осадков.
R24 - Количество осадков - Количество выпавших осадков за 24 часа, мм.
S - Снежный покров - Высота снежного покрова, см. При наведении курсора мыши на число - состояние снежного покрова и степень покрытия местности в баллах.